Location: McFarlands Corners
(41.4117°N, 81.3382°W)
Time: 18:18:22
(UTC+00:00)

Vanguard 1 Rocket - Pass Details

Date: 16 February 2026
Orbit: 653 x 4214 km, 34.3° (Epoch: 8 March)

Event Time Altitude Azimuth Distance (km) Brightness Sun altitude
Rises 23:36:01 0° 278° (W) 6,108 13.3 -7.3°
Reaches altitude 10° 23:39:27 10° 274° (W) 5,479 12.9 -8.0°
Maximum altitude 23:57:15 56° 202° (SSW) 4,275 10.9 -11.3°
Drops below altitude 10° 00:22:11 10° 133° (SE) 7,316 11.6 -15.9°
Sets 00:27:48 0° 129° (SE) 8,165 11.8 -17.0°
